| time (UTC) | temp C | wind direction | speed KPH | gust KPH | rain 1hr cm | rain 24hr cm | rain mn cm | humidity % | barometer mb |
| 20260508111503 | 21 | 0 | 8.0 | 0.0 | 0.00 | 0.00 | 0.00 | 32 | 1021.0 |
| 20260508110005 | 21 | 0 | 8.0 | 0.0 | 0.00 | 0.00 | 0.00 | 32 | 1021.0 |
| 20260508104504 | 20 | 270 | 14.5 | 0.0 | 0.00 | 0.00 | 0.00 | 32 | 1021.0 |
| 20260508103004 | 20 | 270 | 14.5 | 0.0 | 0.00 | 0.00 | 0.00 | 32 | 1021.0 |
| 20260508101504 | 20 | 160 | 11.3 | 0.0 | 0.00 | 0.00 | 0.00 | 37 | 1021.0 |
| 20260508091504 | 17 | 270 | 9.7 | 0.0 | 0.00 | 0.00 | 0.00 | 42 | 1021.0 |
| 20260508090004 | 17 | 270 | 9.7 | 0.0 | 0.00 | 0.00 | 0.00 | 42 | 1021.0 |
| 20260508084504 | 17 | 280 | 11.3 | 0.0 | 0.00 | 0.00 | 0.00 | 51 | 1022.0 |
| 20260508083004 | 17 | 280 | 11.3 | 0.0 | 0.00 | 0.00 | 0.00 | 51 | 1022.0 |
| 20260508081504 | 17 | 220 | 8.0 | 0.0 | 0.00 | 0.00 | 0.00 | 51 | 1022.0 |
| 20260508064504 | 12 | 0 | 3.2 | 0.0 | 0.00 | 0.00 | 0.00 | 62 | 1022.0 |
| 20260508061504 | 12 | 0 | 1.6 | 0.0 | 0.00 | 0.00 | 0.00 | 62 | 1022.0 |
| 20260508060004 | 12 | 0 | 1.6 | 0.0 | 0.00 | 0.00 | 0.00 | 62 | 1022.0 |
| 20260508053004 | 8 | 0 | 1.6 | 0.0 | 0.00 | 0.00 | 0.00 | 76 | 1022.0 |
| 20260508050005 | 6 | 0 | 3.2 | 0.0 | 0.00 | 0.00 | 0.00 | 87 | 1022.0 |
| 20260508044504 | 5 | 10 | 4.8 | 0.0 | 0.00 | 0.00 | 0.00 | 86 | 1022.0 |
| 20260508043004 | 5 | 0 | 1.6 | 0.0 | 0.00 | 0.00 | 0.00 | 86 | 1021.0 |
| 20260508041504 | 5 | 0 | 1.6 | 0.0 | 0.00 | 0.00 | 0.00 | 86 | 1021.0 |
| 20260508040005 | 5 | 0 | 1.6 | 0.0 | 0.00 | 0.00 | 0.00 | 86 | 1021.0 |
| 20260508034504 | 3 | 0 | 3.2 | 0.0 | 0.00 | 0.00 | 0.00 | 86 | 1021.0 |
| 20260508033005 | 3 | 0 | 3.2 | 0.0 | 0.00 | 0.00 | 0.00 | 86 | 1021.0 |
| 20260508024504 | 5 | 50 | 3.2 | 0.0 | 0.00 | 0.00 | 0.00 | 86 | 1021.0 |
| 20260508023004 | 5 | 50 | 3.2 | 0.0 | 0.00 | 0.00 | 0.00 | 86 | 1021.0 |
| 20260508021504 | 5 | 40 | 8.0 | 0.0 | 0.00 | 0.00 | 0.00 | 86 | 1021.0 |
| 20260508020004 | 5 | 40 | 8.0 | 0.0 | 0.00 | 0.00 | 0.00 | 86 | 1021.0 |
| 20260508013004 | 7 | 60 | 4.8 | 0.0 | 0.00 | 0.00 | 0.00 | 81 | 1021.0 |
| 20260508004502 | 7 | 0 | 1.6 | 0.0 | 0.00 | 0.00 | 0.00 | 87 | 1021.0 |
| 20260508000004 | 7 | 30 | 8.0 | 0.0 | 0.00 | 0.00 | 0.00 | 87 | 1021.0 |
| 20260507234504 | 8 | 0 | 3.2 | 0.0 | 0.00 | 0.00 | 0.00 | 76 | 1021.0 |
| 20260507231504 | 8 | 30 | 8.0 | 0.0 | 0.00 | 0.00 | 0.00 | 76 | 1021.0 |
| 20260507224504 | 11 | 0 | 3.2 | 0.0 | 0.00 | 0.00 | 0.00 | 71 | 1021.0 |
| 20260507220004 | 11 | 0 | 3.2 | 0.0 | 0.00 | 0.00 | 0.00 | 71 | 1021.0 |
| 20260507214504 | 12 | 120 | 4.8 | 0.0 | 0.00 | 0.00 | 0.00 | 62 | 1021.0 |
| 20260507213004 | 12 | 120 | 4.8 | 0.0 | 0.00 | 0.00 | 0.00 | 62 | 1021.0 |
| 20260507211504 | 12 | 0 | 3.2 | 0.0 | 0.00 | 0.00 | 0.00 | 66 | 1021.0 |
| 20260507210005 | 12 | 0 | 3.2 | 0.0 | 0.00 | 0.00 | 0.00 | 66 | 1021.0 |
| 20260507203005 | 12 | 20 | 9.7 | 0.0 | 0.00 | 0.00 | 0.00 | 66 | 1020.0 |
| 20260507201504 | 12 | 50 | 8.0 | 0.0 | 0.00 | 0.00 | 0.00 | 62 | 1020.0 |
| 20260507200004 | 12 | 50 | 8.0 | 0.0 | 0.00 | 0.00 | 0.00 | 62 | 1020.0 |
| 20260507193004 | 13 | 110 | 4.8 | 0.0 | 0.00 | 0.00 | 0.00 | 54 | 1020.0 |
| 20260507190005 | 12 | 90 | 4.8 | 0.0 | 0.00 | 0.00 | 0.00 | 58 | 1020.0 |
| 20260507184504 | 15 | 0 | 1.6 | 0.0 | 0.00 | 0.00 | 0.00 | 47 | 1020.0 |
| 20260507183004 | 15 | 0 | 1.6 | 0.0 | 0.00 | 0.00 | 0.00 | 47 | 1020.0 |
| 20260507180004 | 13 | 0 | 1.6 | 0.0 | 0.00 | 0.00 | 0.00 | 54 | 1019.0 |
| 20260507174504 | 15 | 250 | 4.8 | 0.0 | 0.00 | 0.00 | 0.00 | 47 | 1019.0 |
| 20260507173004 | 15 | 250 | 4.8 | 0.0 | 0.00 | 0.00 | 0.00 | 47 | 1019.0 |
| 20260507171504 | 16 | 270 | 8.0 | 0.0 | 0.00 | 0.00 | 0.00 | 44 | 1019.0 |
| 20260507170005 | 16 | 270 | 8.0 | 0.0 | 0.00 | 0.00 | 0.00 | 44 | 1019.0 |
| 20260507164504 | 17 | 270 | 12.9 | 0.0 | 0.00 | 0.00 | 0.00 | 36 | 1019.0 |
| 20260507163004 | 17 | 270 | 12.9 | 0.0 | 0.00 | 0.00 | 0.00 | 36 | 1019.0 |
| 20260507161503 | 17 | 260 | 12.9 | 0.0 | 0.00 | 0.00 | 0.00 | 34 | 1019.0 |
| 20260507154504 | 17 | 250 | 14.5 | 0.0 | 0.00 | 0.00 | 0.00 | 34 | 1019.0 |
| 20260507153004 | 17 | 250 | 14.5 | 0.0 | 0.00 | 0.00 | 0.00 | 34 | 1019.0 |
| 20260507151504 | 18 | 260 | 11.3 | 0.0 | 0.00 | 0.00 | 0.00 | 32 | 1019.0 |
| 20260507150005 | 18 | 260 | 11.3 | 0.0 | 0.00 | 0.00 | 0.00 | 32 | 1019.0 |
| 20260507144503 | 17 | 250 | 12.9 | 0.0 | 0.00 | 0.00 | 0.00 | 31 | 1019.0 |
| 20260507143005 | 17 | 250 | 12.9 | 0.0 | 0.00 | 0.00 | 0.00 | 31 | 1019.0 |
| 20260507134504 | 17 | 310 | 11.3 | 0.0 | 0.00 | 0.00 | 0.00 | 36 | 1019.0 |
| 20260507133004 | 17 | 310 | 11.3 | 0.0 | 0.00 | 0.00 | 0.00 | 36 | 1019.0 |
| 20260507131504 | 17 | 0 | 9.7 | 0.0 | 0.00 | 0.00 | 0.00 | 36 | 1019.0 |
| 20260507124503 | 17 | 230 | 14.5 | 0.0 | 0.00 | 0.00 | 0.00 | 39 | 1020.0 |
| 20260507121503 | 17 | 180 | 8.0 | 0.0 | 0.00 | 0.00 | 0.00 | 42 | 1020.0 |
| 20260507120005 | 17 | 180 | 8.0 | 0.0 | 0.00 | 0.00 | 0.00 | 42 | 1020.0 |
| 20260507113005 | 17 | 0 | 8.0 | 0.0 | 0.00 | 0.00 | 0.00 | 42 | 1020.0 |